SL-16 DEB, 28356

Orbit data source: Space-Track

SL-16 DEB, 28356 is space debris in LEO originally from a launch on Thu, 10 Jun 2004 UTC launched from the Tyuratam Missile And Space Complex (TTMTR). Debris objects in space refer to the collection of defunct objects orbiting the Earth. Examples of debris include non-operational satellites, rocket bodies, and fragments generated from explosions, collisions, or faulty payload assembly.

Loading next visibility...
Identifier
28356, 2004-021E
Orbit
LEO
Country
Flag of CISCIS
Related business
Manufacturer
Yuzhnoe
Mission
Spacecraft
Bus & Motor
SEP MOTOR COVER, Unknown motor
Mass
~1 kg wet, ~1 kg dry
Launch date (UTC)
2004-06-10 (22 years ago)
Launch vehicle
Unknown
Launch site
Tyuratam Missile And Space Complex (TTMTR)
Object type
Payload
Rocket body
Debris
Shape & HBR
Cone, 0.5 m
Radar Cross Section
0.635 m², Small (<0.1 m²)

Expand to show TLE details & history
Last TLE update: 10 hours ago

TLE from 10 hours ago
0 SL-16 DEB
1 28356U 04021E   26119.23270899  .00000050  00000-0  90219-4 0  9990
2 28356  71.0624 314.6659 0220822 277.3584 196.2510 13.69388212 92954
Epoch: 2026-04-29T05:35Z
TLE epoch observation values (Epoch: 2026-04-29T05:35:06.056Z)
Latitude
60.70164°
Longitude
156.22275°
Altitude
1,168.326 km
Speed
7.197 km/s
True Right ascension
06h 28m 46s
True Declination
60° 33' 46"
Sunlit
Object was in daylight at epoch
Visualization orbit readout
Latitude
Unknown
Longitude
Unknown
Altitude
Unknown
Speed
Unknown
Apparent Right ascension
Unknown
Apparent Declination
Unknown
Sunlit
N/A
Visualization observer readout
Local Sidereal Time
23:07:57
Azimuth
Unknown
Elevation
Unknown
Doppler factor
Unknown
Orbital elements
Apogee altitude
1,162.65 km
Perigee altitude
836.811 km
Semi-major axis
7,377.868 km
Eccentricity
0.02208
Inclination
71.0624°
RAAN
314.6659°
Arg. of periapsis
277.3584°
True anomaly
195.56118°
Mean anomaly
196.251°
Eccentric anomaly
195.90429°
Mean motion
3.42489 °/min
Orbital period
105.11 mins
BSTAR
0.000090219
Loading maneuver chart data...
Computing Atmospheric mass density...
Loading historical data...
Loading historical data...
Loading historical data...
Loading historical data...
Loading historical data...
Loading historical data...
Loading historical data...

Documentation

Showing up to 5 results
|